sat.trackr.live / text

‹ back to catalog

STARLINK-36073

NORAD 66844 · 2025-280Z

PAYLOAD ACTIVE UNKNOWN

§ Identity

Operator
Country
US
Launch date
2025-12-02
Launch site
AFWTR
Launch vehicle
Mass (kg)
RCS (m²)

Purposes: comms

External: N2YO · Heavens-Above · Gunter

§ Orbital elements

Epoch: 2026-05-25T02:54:47.601792Z

Period
96.11 min
Inclination
70.0005°
Eccentricity
0.0003879
Mean motion
14.98333964 rev/d
Perigee alt
569.3 km
Apogee alt
574.7 km
Semi-major
6,950.2 km
B*
3.4984e-4
RAAN
141.7844°
Arg perigee
269.8017°
Mean anomaly
90.2698°
Rev number
2,749

§ Raw data

STARLINK-360731 66844U 25280Z   26145.12138428  .00004084  00000+0  34984-3 0  99982 66844  70.0005 141.7844 0003879 269.8017  90.2698 14.98333964 27497

JSON: /api/v1/satellites/66844 · /tle

For live sub-satellite position, see the globe view (requires WebGL).

§ Visibility from observer

Set your observer location to see the next 7 days of passes ≥ 10°. The values pass through the URL so the page stays shareable.

No JS? Fill the form by hand. The geolocation button needs JavaScript.